EW4052 Weather Reports


Display with metric or nautical units.
time (UTC)temp
F
wind
direction
speed
MPH
gust
MPH
rain 1hr
in
rain 24hr
in
rain mn
in
humidity
%
barometer
mb
20220529121515 66 159 0.0 6.0 0.00 0.00 0.00 81 998.8
20220529120013 66 303 0.0 4.0 0.00 0.00 0.00 81 998.4
20220529114512 66 291 0.0 3.0 0.00 0.00 0.00 80 998.6
20220529113014 65 322 0.0 2.0 0.00 0.00 0.00 80 998.7
20220529111511 65 268 0.0 2.0 0.00 0.00 0.00 79 998.5
20220529110016 64 306 0.0 4.0 0.00 0.00 0.00 79 997.7
20220529104515 64 123 1.0 7.0 0.00 0.00 0.00 79 997.4
20220529103008 64 55 0.0 0.0 0.00 0.00 0.00 80 997.8
20220529101508 64 229 0.0 0.0 0.00 0.00 0.00 80 997.3
20220529100013 64 309 0.0 0.0 0.00 0.00 0.00 80 997.6
20220529094506 64 348 0.0 1.0 0.00 0.00 0.00 80 997.9
20220529093002 65 332 0.0 1.0 0.00 0.00 0.00 81 998.2
20220529091558 65 355 0.0 0.0 0.00 0.00 0.00 81 998.8
20220529090109 65 57 0.0 0.0 0.00 0.00 0.00 81 999.1
20220529084557 65 26 0.0 1.0 0.00 0.00 0.00 81 999.6
20220529083058 65 196 0.0 0.0 0.00 0.00 0.00 81 999.3
20220529081553 65 304 0.0 0.0 0.00 0.00 0.00 81 999.4
20220529080118 65 277 0.0 0.0 0.00 0.00 0.00 81 999.5
20220529074551 65 249 0.0 0.0 0.00 0.00 0.00 81 999.6
20220529073105 65 69 0.0 1.0 0.00 0.00 0.00 80 999.4
20220529071548 66 167 0.0 0.0 0.00 0.00 0.00 80 999.4
20220529070046 66 134 0.0 0.0 0.00 0.00 0.00 80 999.7
20220529064543 66 258 0.0 0.0 0.00 0.00 0.00 80 999.9
20220529063048 66 267 0.0 1.0 0.00 0.00 0.00 79 1000.2
20220529061544 66 271 0.0 4.0 0.00 0.00 0.00 79 1000.3
20220529060042 67 286 0.0 4.0 0.00 0.00 0.00 79 1000.4
20220529054545 67 306 0.0 1.0 0.00 0.00 0.00 78 1000.6
20220529053034 67 302 0.0 1.0 0.00 0.00 0.00 77 1000.6
20220529051531 68 297 0.0 1.0 0.00 0.00 0.00 76 1000.7
20220529050034 68 333 0.0 0.0 0.00 0.00 0.00 76 1000.8
20220529044527 68 343 0.0 5.0 0.00 0.00 0.00 75 1000.9
20220529043027 69 15 0.0 3.0 0.00 0.00 0.00 75 1001.1
20220529041528 69 240 0.0 4.0 0.00 0.00 0.00 75 1001.1
20220529040033 69 293 0.0 0.0 0.00 0.00 0.00 75 1001.0
20220529034539 69 291 0.0 2.0 0.00 0.00 0.00 74 1000.9
20220529033025 70 291 0.0 1.0 0.00 0.00 0.00 73 1000.9
20220529031536 70 317 0.0 2.0 0.00 0.00 0.00 72 1000.7
20220529030025 71 360 0.0 1.0 0.00 0.00 0.00 71 1000.6
20220529024530 72 21 0.0 2.0 0.00 0.00 0.00 69 1000.7
20220529023021 72 282 0.0 0.0 0.00 0.00 0.00 68 1000.4
20220529021520 74 282 0.0 2.0 0.00 0.00 0.00 66 1000.3
20220529020029 74 303 0.0 0.0 0.00 0.00 0.00 64 1000.1
20220529014519 76 348 0.0 1.0 0.00 0.00 0.00 62 1000.2
20220529013018 77 347 0.0 1.0 0.00 0.00 0.00 58 1000.2
20220529011533 78 22 0.0 1.0 0.00 0.00 0.00 57 1000.1
20220529010035 79 58 0.0 3.0 0.00 0.00 0.00 55 999.9
20220529004516 80 292 0.0 7.0 0.00 0.00 0.00 54 999.8
20220529003016 80 46 0.0 4.0 0.00 0.00 0.00 53 999.7
20220529001515 81 13 0.0 7.0 0.00 0.00 0.00 52 999.6
20220529000015 82 171 0.0 6.0 0.00 0.00 0.00 50 999.5
20220528234514 83 39 0.0 5.0 0.00 0.00 0.00 49 999.4
20220528233013 84 5 0.0 5.0 0.00 0.00 0.00 48 999.3
20220528231518 85 169 1.0 10.0 0.00 0.00 0.00 47 999.3
20220528230011 86 25 0.0 8.0 0.00 0.00 0.00 45 999.4
20220528224513 87 236 0.0 12.0 0.00 0.00 0.00 45 999.5
20220528223009 87 289 0.0 10.0 0.00 0.00 0.00 43 999.7
20220528221514 88 261 2.0 13.0 0.00 0.00 0.00 44 999.8
20220528220007 88 335 1.0 8.0 0.00 0.00 0.00 41 999.9
20220528214514 88 21 1.0 15.0 0.00 0.00 0.00 42 1000.0
20220528213015 89 272 0.0 11.0 0.00 0.00 0.00 41 1000.0
20220528211501 88 224 4.0 11.0 0.00 0.00 0.00 43 1000.2
20220528210059 88 131 1.0 10.0 0.00 0.00 0.00 42 1000.4
20220528204557 88 12 0.0 14.0 0.00 0.00 0.00 41 1000.5
20220528203053 87 272 4.0 16.0 0.00 0.00 0.00 41 1000.8
20220528201551 87 270 2.0 15.0 0.00 0.00 0.00 42 1001.0
20220528200046 86 200 1.0 13.0 0.00 0.00 0.00 43 1001.2
20220528194544 85 92 0.0 10.0 0.00 0.00 0.00 44 1001.3
20220528193044 85 273 2.0 11.0 0.00 0.00 0.00 43 1001.7
20220528191539 84 294 3.0 12.0 0.00 0.00 0.00 46 1001.8
20220528190037 84 212 3.0 16.0 0.00 0.00 0.00 45 1001.7
20220528184535 83 167 2.0 17.0 0.00 0.00 0.00 46 1002.0
20220528183033 83 277 2.0 14.0 0.00 0.00 0.00 48 1002.3
20220528181535 81 140 1.0 13.0 0.00 0.00 0.00 52 1002.3
20220528180024 80 279 3.0 14.0 0.00 0.00 0.00 52 1002.5
20220528174521 79 239 2.0 16.0 0.00 0.00 0.00 53 1002.8
20220528173018 78 51 2.0 13.0 0.00 0.00 0.00 54 1002.9
20220528171522 77 86 1.0 17.0 0.00 0.00 0.00 56 1003.0
20220528170011 76 54 4.0 13.0 0.00 0.00 0.00 58 1003.1
20220528164507 75 60 3.0 11.0 0.00 0.00 0.00 57 1002.8
20220528163106 74 292 1.0 12.0 0.00 0.00 0.00 58 1002.7
20220528161502 73 336 1.0 12.0 0.00 0.00 0.00 58 1003.0
20220528160058 72 218 0.0 8.0 0.00 0.00 0.00 62 1003.3
20220528154558 72 13 1.0 8.0 0.00 0.00 0.00 60 1003.5
20220528153052 71 295 2.0 15.0 0.00 0.00 0.00 64 1003.7
20220528151550 70 63 3.0 10.0 0.00 0.00 0.00 62 1004.5
20220528150046 69 24 0.0 6.0 0.00 0.00 0.00 67 1004.6
20220528144542 68 71 1.0 8.0 0.00 0.00 0.00 68 1004.7
20220528143044 68 104 0.0 10.0 0.00 0.00 0.00 67 1004.9
20220528141539 68 134 1.0 13.0 0.00 0.00 0.00 66 1005.2
20220528140038 67 252 1.0 9.0 0.00 0.00 0.00 69 1005.4
20220528134531 65 296 0.0 10.0 0.00 0.00 0.00 72 1005.9
20220528133030 64 48 0.0 9.0 0.00 0.00 0.00 71 1006.3
20220528131529 64 231 1.0 12.0 0.00 0.00 0.00 73 1006.4
20220528130038 63 284 0.0 9.0 0.00 0.00 0.00 71 1006.3
20220528124522 63 296 0.0 5.0 0.00 0.00 0.00 72 1006.4
20220528123020 62 59 0.0 5.0 0.00 0.00 0.00 73 1005.9